[[{"header":{"parameterUnit":"m.s-1","parameterCategory":1,"la1":30.2991,"la2":30.254,"lo1":-89.0895,"lo2":-89.0444,"dy":0.0017,"dx":0.0017,"nx":28,"ny":28,"refTime":"2024-07-22T21:00:00:Z","depth":0,"parameterNumber":2,"parameterNumberName":"U-component_of_WINDS"},"data":[0,0,0,0,0,0,0,0,0,0,0,0,0,0,0,0,0,0,0,0,0,0,0,0,0,0,0,0,0,0,0,0,0,0,0,0,0,0,0,0,0,0,0,0,0,0,0,0,0,0,0,0,0,0,0,0,0,0,0.7441,0.7442,0,0.7461,0.7461,0.7462,0.7478,0.7479,0.7479,0.7479,0.7499,0.75,0.75,0,0,0,0,0,0,0,0,0,0,0,0,0,0.7418,0.7419,0.7441,0.7442,0.7442,0.7461,0.7461,0.7462,0.7478,0.7479,0.7479,0.7479,0.7499,0.75,0.75,0,0,0,0,0,0,0,0,0,0,0,0,0,0.7432,0.7419,0.7441,0.7453,0.7454,0.7461,0.7461,0.7462,0.7478,0.7479,0.7479,0.7479,0.7499,0.7499,0.75,0.7498,0,0,0.7502,0.7502,0,0,0,0,0,0,0,0,0.7431,0.7433,0.7451,0.7452,0.7453,0.7468,0.7461,0.7474,0.7478,0.7469,0.7479,0.7479,0.7488,0.749,0.7493,0.7499,0.75,0.7502,0.7502,0.7502,0.7502,0,0,0,0,0,0,0,0.743,0.7432,0.7449,0.7451,0.7452,0.7457,0.7459,0.7463,0.7477,0.747,0.7471,0.7473,0.7489,0.7492,0.7494,0.75,0.7502,0.7502,0.7503,0.7503,0.7505,0.7504,0,0,0,0,0,0,0.7428,0.7431,0.7449,0.745,0.7443,0.7457,0.7459,0.7463,0.7477,0.7479,0.7473,0.7474,0.7491,0.7493,0.7494,0.7493,0.7502,0.7503,0.7503,0.7505,0.7505,0.7504,0,0,0,0,0,0,0.7427,0.7429,0.7448,0.7441,0.7444,0.7457,0.746,0.7463,0.7466,0.7479,0.7482,0.7474,0.7492,0.7494,0.7497,0.7494,0.7503,0.7504,0.7505,0.7505,0.7504,0.7489,0,0,0,0,0,0,0.7426,0.7429,0.7428,0.7441,0.7444,0.745,0.746,0.7463,0.7467,0.7468,0.7481,0.7483,0.7492,0.7496,0.7497,0.7494,0.7504,0.7506,0.7505,0.7505,0.749,0.7488,0.7487,0,0,0,0,0,0.7426,0.7423,0.7428,0.743,0.7443,0.745,0.7451,0.7462,0.7467,0.7466,0.7474,0.7483,0.7494,0.7496,0.7498,0.7495,0.7506,0.7505,0.7505,0.7491,0.7489,0.7487,0,0,0,0,0,0,0.741,0.7425,0.7431,0.7432,0.744,0.7453,0.7452,0.7459,0.7465,0.7467,0.7479,0.7482,0.7484,0.749,0.7492,0.7494,0.7501,0.7501,0.749,0.7488,0.7486,0.7485,0.7504,0,0,0,0,0,0.7407,0.741,0.7423,0.7424,0.7427,0.7439,0.7442,0.7449,0.7457,0.7461,0.7469,0.7477,0.7482,0.7485,0.7491,0.7491,0.7494,0.749,0.7488,0.7487,0.7486,0.7487,0.7485,0.7502,0.7502,0.7502,0,0,0.74,0.7409,0.741,0.7421,0.7427,0.7431,0.7441,0.7445,0.7448,0.7461,0.7465,0.7471,0.748,0.7482,0.7483,0.7487,0.7482,0.7486,0.7485,0.7485,0.7486,0.7484,0.7483,0.7502,0.7502,0.7502,0,0,0.7389,0.7397,0.7397,0.7404,0.7413,0.7421,0.7421,0.7433,0.7438,0.7442,0.7452,0.7455,0.7464,0.747,0.7474,0.7466,0.7473,0.7467,0.7459,0.7459,0.7457,0.7456,0.7453,0.7452,0.7467,0.7467,0.7467,0,0.738,0.7386,0.7397,0.74,0.7404,0.7416,0.7417,0.7422,0.7433,0.7436,0.744,0.7451,0.7458,0.7461,0.7459,0.7462,0.7463,0.7466,0.7457,0.7456,0.7455,0.7452,0.7451,0.7466,0.7466,0.7466,0.7466,0,0.7373,0.7377,0.7377,0.7387,0.7391,0.7393,0.7404,0.7407,0.7414,0.7421,0.7425,0.7433,0.7441,0.7442,0.7449,0.7446,0.7448,0.7454,0.7462,0.7452,0.745,0.7449,0.7465,0.7465,0.7465,0.7465,0,0,0.7354,0.737,0.737,0.7374,0.7386,0.7389,0.7391,0.7398,0.74,0.7407,0.7409,0.7416,0.7422,0.7427,0.7434,0.7434,0.7427,0.7441,0.7441,0.7438,0.7424,0.7419,0.7418,0.7432,0.7432,0.7432,0.7423,0,0.7345,0.735,0.736,0.7361,0.7365,0.7377,0.7379,0.7386,0.7392,0.7397,0.7404,0.7409,0.7416,0.7419,0.742,0.7428,0.7424,0.7428,0.7434,0.7434,0.7431,0.7416,0.7411,0.7403,0.7422,0.7422,0.7422,0,0.7336,0.7342,0.7344,0.7355,0.7357,0.7358,0.7366,0.7369,0.7378,0.7383,0.7388,0.7396,0.7399,0.7405,0.7409,0.7412,0.7415,0.7419,0.7419,0.742,0.7427,0.7417,0.74,0.7399,0.742,0.7421,0.7421,0,0.7321,0.733,0.7332,0.7336,0.7349,0.735,0.7355,0.7364,0.7367,0.7373,0.7376,0.7382,0.7386,0.739,0.74,0.7404,0.7403,0.7411,0.7407,0.7407,0.7406,0.7406,0.739,0.7408,0.7408,0.7408,0.7408,0,0.7311,0.7311,0.7326,0.7327,0.7328,0.7339,0.734,0.7347,0.7354,0.7357,0.7367,0.7369,0.7382,0.7386,0.7394,0.7395,0.7397,0.7401,0.7403,0.74,0.74,0.7402,0.7403,0.7408,0.7408,0.7408,0.7408,0,0.7294,0.7304,0.7307,0.7319,0.7322,0.7322,0.7333,0.7334,0.7342,0.7345,0.7346,0.7358,0.7363,0.7373,0.7381,0.7386,0.7386,0.7389,0.7383,0.7384,0.738,0.738,0.7365,0.7363,0.7382,0.7382,0.7382,0,0.7287,0.7288,0.7299,0.7302,0.7307,0.7311,0.7315,0.7326,0.7329,0.7338,0.7339,0.7344,0.7349,0.7357,0.7366,0.7372,0.7375,0.737,0.7376,0.7373,0.7375,0.7375,0.7375,0.7368,0.7368,0.7368,0.7368,0,0.7272,0.7277,0.7282,0.7288,0.7292,0.7298,0.7304,0.7306,0.7318,0.7321,0.7326,0.733,0.7338,0.7343,0.7351,0.7356,0.7364,0.7365,0.7365,0.7362,0.7358,0.736,0.7379,0.7366,0.7366,0.7366,0.7366,0.7366,0.726,0.7261,0.727,0.7275,0.728,0.7286,0.7288,0.7296,0.73,0.7307,0.7313,0.7318,0.7326,0.7336,0.7341,0.7345,0.7348,0.7348,0.7347,0.7347,0.7346,0.7357,0.7346,0.7346,0.7346,0.7346,0.7346,0,0.7246,0.7252,0.7257,0.7265,0.7269,0.7275,0.7283,0.7285,0.7289,0.7296,0.7301,0.7306,0.7312,0.7321,0.7327,0.7328,0.7331,0.7329,0.7329,0.733,0.7342,0.7342,0.7326,0.7326,0.7326,0.7326,0.7326,0.7326,0.7239,0.7241,0.7247,0.7252,0.7258,0.7263,0.7266,0.7271,0.7276,0.7282,0.7287,0.7293,0.73,0.7307,0.7312,0.7315,0.7316,0.7313,0.7316,0.7327,0.7329,0.7331,0.7331,0.7313,0.7313,0.7304,0.7304,0.7304]},{"header":{"parameterUnit":"m.s-1","parameterCategory":1,"la1":30.2991,"la2":30.254,"lo1":-89.0895,"lo2":-89.0444,"dy":0.0017,"dx":0.0017,"nx":28,"ny":28,"refTime":"2024-07-22T21:00:00:Z","depth":0,"parameterNumber":3,"parameterNumberName":"V-component_of_WINDS"},"data":[0,0,0,0,0,0,0,0,0,0,0,0,0,0,0,0,0,0,0,0,0,0,0,0,0,0,0,0,0,0,0,0,0,0,0,0,0,0,0,0,0,0,0,0,0,0,0,0,0,0,0,0,0,0,0,0,0,0,2.6086,2.6086,0,2.6039,2.6039,2.6038,2.6061,2.6062,2.6063,2.6064,2.6013,2.601,2.6008,0,0,0,0,0,0,0,0,0,0,0,0,0,2.6191,2.6189,2.6086,2.6086,2.6085,2.6039,2.6039,2.6038,2.6061,2.6062,2.6064,2.6065,2.6014,2.6011,2.6008,0,0,0,0,0,0,0,0,0,0,0,0,0,2.6145,2.6188,2.6086,2.6091,2.6091,2.6039,2.6039,2.6038,2.606,2.6062,2.6064,2.6066,2.6015,2.6011,2.6007,2.5948,0,0,2.5996,2.5994,0,0,0,0,0,0,0,0,2.6147,2.6141,2.6091,2.609,2.609,2.6058,2.6057,2.6007,2.606,2.6072,2.6064,2.6067,2.6026,2.6022,2.6009,2.5945,2.5943,2.5996,2.5993,2.5992,2.5991,0,0,0,0,0,0,0,2.6151,2.6143,2.6067,2.609,2.609,2.6094,2.6089,2.6048,2.6039,2.6071,2.6072,2.6067,2.6026,2.6012,2.6008,2.5942,2.5996,2.5992,2.599,2.5989,2.5826,2.5824,0,0,0,0,0,0,2.6154,2.6146,2.6069,2.6066,2.6124,2.609,2.6085,2.6066,2.604,2.6037,2.6065,2.6068,2.6018,2.6012,2.6006,2.5933,2.5992,2.5988,2.5986,2.5828,2.5825,2.5823,0,0,0,0,0,0,2.6156,2.6147,2.6071,2.6106,2.6097,2.6087,2.6065,2.6064,2.605,2.6036,2.6034,2.6053,2.6019,2.6011,2.5962,2.5931,2.5986,2.5983,2.583,2.5827,2.5824,2.5787,0,0,0,0,0,0,2.6159,2.6148,2.6126,2.6106,2.6095,2.6029,2.6063,2.6062,2.6044,2.6047,2.6023,2.6021,2.602,2.5967,2.5958,2.5927,2.598,2.5833,2.5829,2.5825,2.5791,2.5783,2.5777,0,0,0,0,0,2.6163,2.6117,2.6125,2.6115,2.6068,2.6027,2.6021,2.6021,2.6042,2.6019,2.6009,2.6022,2.5937,2.5962,2.5952,2.5919,2.5835,2.583,2.5825,2.5794,2.5785,2.5777,0,0,0,0,0,0,2.6133,2.6115,2.6123,2.6069,2.605,2.6031,2.6002,2.6011,2.5985,2.5988,2.5989,2.5984,2.5932,2.5921,2.595,2.5859,2.5889,2.5882,2.5868,2.5859,2.5852,2.5855,2.5977,0,0,0,0,0,2.6121,2.609,2.6075,2.6029,2.6019,2.6012,2.5995,2.5997,2.5976,2.5967,2.5954,2.5932,2.59,2.5879,2.585,2.579,2.5784,2.5762,2.5755,2.5749,2.5743,2.5709,2.5698,2.5808,2.5808,2.5808,0,0,2.6094,2.608,2.6061,2.6023,2.6008,2.5975,2.6005,2.5969,2.5944,2.5962,2.5914,2.5903,2.5879,2.5824,2.5799,2.5813,2.5712,2.5743,2.5739,2.5735,2.5703,2.5693,2.5683,2.5804,2.5805,2.5806,0,0,2.6028,2.6015,2.5975,2.5959,2.5937,2.5932,2.5922,2.5902,2.5896,2.5848,2.586,2.583,2.5776,2.5757,2.5741,2.5667,2.5677,2.5658,2.5619,2.5586,2.5577,2.5569,2.5541,2.5532,2.5651,2.5651,2.5651,0,2.5997,2.595,2.5953,2.5916,2.5898,2.5913,2.5871,2.5856,2.5824,2.581,2.5827,2.5758,2.5743,2.5683,2.5665,2.5652,2.5639,2.566,2.5578,2.5571,2.5563,2.5537,2.5526,2.5649,2.5649,2.565,2.565,0,2.5912,2.5878,2.5848,2.5818,2.5797,2.5757,2.5753,2.5731,2.5735,2.5729,2.5679,2.5662,2.5628,2.5614,2.5617,2.5553,2.5563,2.5579,2.5608,2.5551,2.5525,2.5515,2.5646,2.5646,2.5647,2.5648,0,0,2.5825,2.5797,2.5786,2.5772,2.5747,2.5721,2.5681,2.5649,2.5629,2.5607,2.5572,2.5526,2.554,2.5522,2.5523,2.5494,2.5435,2.5513,2.5513,2.5498,2.5361,2.5348,2.5337,2.5442,2.544,2.5438,2.5363,0,2.5757,2.5689,2.569,2.5627,2.5595,2.5608,2.5574,2.5554,2.5547,2.5518,2.5509,2.5475,2.5498,2.5486,2.5459,2.5448,2.5407,2.5453,2.5408,2.5406,2.5412,2.5324,2.531,2.524,2.5353,2.5352,2.535,0,2.5667,2.5642,2.5576,2.5555,2.5541,2.551,2.548,2.5453,2.543,2.5427,2.5405,2.5411,2.5369,2.5401,2.5342,2.5374,2.5355,2.5347,2.5344,2.5339,2.5374,2.5314,2.5218,2.5207,2.5335,2.5337,2.5338,0,2.5609,2.5558,2.5512,2.5499,2.5474,2.5452,2.544,2.542,2.54,2.5373,2.536,2.5328,2.531,2.5285,2.5282,2.5305,2.5222,2.5254,2.5217,2.5217,2.5197,2.5198,2.5095,2.5188,2.5188,2.5188,2.5189,0,2.5531,2.5489,2.5485,2.5456,2.5409,2.5411,2.5364,2.5354,2.5335,2.5303,2.5313,2.5283,2.5281,2.5249,2.5246,2.5197,2.5189,2.5184,2.5184,2.5182,2.5183,2.5169,2.5173,2.5186,2.5186,2.5187,2.5187,0,2.5457,2.5453,2.5402,2.5383,2.5377,2.5343,2.5326,2.5297,2.5291,2.5251,2.5241,2.5231,2.5194,2.5188,2.5145,2.5143,2.5084,2.5089,2.5091,2.5092,2.5054,2.5057,2.4937,2.4921,2.5026,2.5025,2.5024,0,2.5407,2.5375,2.5352,2.5332,2.532,2.5287,2.5267,2.5267,2.5245,2.5217,2.5191,2.5156,2.5127,2.5067,2.5055,2.5022,2.5025,2.4985,2.502,2.5019,2.5022,2.5024,2.502,2.4978,2.4977,2.4976,2.4975,0,2.5317,2.5317,2.5288,2.5258,2.5234,2.521,2.5187,2.517,2.5167,2.5142,2.5105,2.5083,2.5038,2.5002,2.4969,2.4956,2.4964,2.4965,2.4954,2.4952,2.4954,2.4951,2.5072,2.4967,2.4968,2.4969,2.4969,2.4969,2.5253,2.5225,2.5204,2.5171,2.5154,2.5133,2.5105,2.5095,2.5065,2.5029,2.5031,2.499,2.4967,2.4923,2.4907,2.4874,2.4887,2.4872,2.4868,2.4864,2.4859,2.4961,2.4868,2.4869,2.4869,2.4869,2.4869,0,2.5162,2.515,2.512,2.5088,2.5062,2.5074,2.5049,2.5026,2.499,2.4968,2.494,2.4897,2.4862,2.4847,2.4812,2.4788,2.4791,2.4779,2.4779,2.4776,2.4851,2.4863,2.4777,2.4777,2.4777,2.4777,2.4777,2.4777,2.5112,2.5065,2.5062,2.5006,2.4993,2.4954,2.4938,2.4918,2.49,2.4852,2.4823,2.4814,2.4794,2.4758,2.4726,2.4722,2.4708,2.4694,2.4692,2.4762,2.4771,2.478,2.4791,2.4691,2.4691,2.462,2.4619,2.4618]}]]